Retour au catalogue

SL-14 DEB

ActifPO
NORAD 19230·DEBRIS·🇷🇺 Russia

Lancé Oct 26, 1978 depuis Plesetsk Cosmodrome

Loading…

Prochains Passages (prochaines 24 heures)

TLE

FraisSource: Space-Track

Époque: Sep 14, 2026, 03:10 UTC

1 19230U 78100Z   26257.13204203  .00000055  00000-0  57680-3 0  9997
2 19230  82.5353 310.0338 0017590  75.8315 311.8500 11.98787903677003

Suivez SL-14 DEB en temps réel avec AllMySat

Download on the App Store